Tracking 31028 objects as of 17-Jul-2025
HD Live streaming from Space Station
objects crossing your sky now

STARLINK-32829

Track STARLINK-32829 now!
10-day predictions
STARLINK-32829 is classified as:


NORAD ID: 63049
Int'l Code: 2025-034W
Perigee: 481.6 km
Apogee: 483.1 km
Inclination: 53.2 °
Period: 94.1 minutes
Semi major axis: 6853 km
RCS: Unknown
Launch date: February 18, 2025
Source: United States (US)
Launch site: AIR FORCE EASTERN TEST RANGE (AFETR)
Your satellite tracking list
Your tracking list is empty




NASA's NSSDC Master Catalog

Two Line Element Set (TLE):
1 63049U 25034W   25197.52791350  .00004107  00000-0  15074-3 0  9994
2 63049  53.1581 288.2639 0001088  88.3705 271.7420 15.30193458 22740
Source of the keplerian elements: AFSPC